Find Yaogan 31 hao 01 zu 03 xing

NORAD ID: 43277 Int'l Des: 2018-034 Owner: ZLZB Country: CN Constellation: yaogan operational
LEO

リアルタイム位置

3D地球を読み込み中...

Yaogan 31 hao 01 zu 03 xingについて

説明を読み込み中...

次回通過

Passes for default location (London). Set your location on the main map for personalized predictions.

高度履歴

Loading altitude history...

軌道要素

1 43277U 18034C 26105.93113395 -.00000028 00000-0 84982-4 0 9993
2 43277 63.3950 250.8245 0269961 6.9499 353.5152 13.45437394393863
Epoch: Apr 15, 2026 • Age: 13 hours

現在のステータス

高度 1289.4 km
速度 7.12 km/s
衛星直下点 2.04°N, 48.11°E
打ち上げ日 Apr 10, 2018
運用期間 8 years
タイプ military

技術仕様

分類 Payload
質量 500.00 kg
乾燥質量 500.00 kg
総質量 500.00 kg
長さ 0.50 m
直径 0.50 m
スパン 1.00 m
形状 Box + 2 Pan
製造者 DFHZ
フェーズステータス In Orbit
所有者/国 ZLZB/CN

Most Searched